Weather History for KIRK - April, 2014

Change the Weather History Date:

Tuesday, April 29, 2014

  Actual Average Record
Temperature  
Mean Temperature 47 °F 56 °F  
Max Temperature 53 °F 67 °F 90 °F (1942)
Min Temperature 40 °F 46 °F 27 °F (1958)
Degree Days  
Heating Degree Days 18 9  
Month to date heating degree days 383 393  
Since 1 July heating degree days 6255 5680  
Cooling Degree Days 0 0  
Month to date cooling degree days 5 0  
Year to date cooling degree days 5 0  
Moisture  
Dew Point 43 °F    
Average Humidity 76    
Maximum Humidity 89    
Minimum Humidity 63    
Precipitation  
Precipitation 0.05 in 0.19 in 1.53 in (2006)
Month to date precipitation 2.93 3.66  
Year to date precipitation 7.55 9.01  
Sea Level Pressure  
Sea Level Pressure 29.55 in    
Wind  
Wind Speed 10 mph (SW)    
Max Wind Speed 17 mph    
Max Gust Speed 24 mph    
Visibility 9 miles    
Events Rain    
T = Trace of Precipitation, MM = Missing Value Source: NWS Daily Summary

Daily Weather History Graph

Daily Weather History Graph

Search for Another Location

Airport or City:

Trip Planner

Search our weather history database for the weather conditions in past years. The results will help you decide how hot, cold, wet, or windy it might be!

Date:

Astronomy

Apr. 29, 2014 Rise Set
Actual Time 6:12 AM CDT 8:03 PM CDT
Civil Twilight 5:43 AM CDT 8:32 PM CDT
Nautical Twilight 5:07 AM CDT 9:08 PM CDT
Astronomical Twilight 4:29 AM CDT 9:46 PM CDT
Moon 6:31 AM CDT 8:43 PM CDT
Length of Visible Light 14h 49m
Length of Day
13h 50m
New Moon, 0% of the Moon is Illuminated
Apr 29
New Moon
May 6
First Quarter
May 14
Full
May 21
Last Quarter
May 28
New

Hourly Weather History & Observations

Time (CDT) Temp. Windchill Dew Point Humidity Pressure Visibility Wind Dir Wind Speed Gust Speed Precip Events Conditions
12:55 AM 53.1 °F - 42.1 °F 66% 29.43 in 10.0 mi SSW 6.9 mph - 0.00 in   Overcast
1:55 AM 53.1 °F - 41.0 °F 64% 29.42 in 10.0 mi SW 4.6 mph - N/A   Overcast
2:55 AM 52.0 °F - 41.0 °F 66% 29.41 in 10.0 mi SW 4.6 mph - N/A   Overcast
3:55 AM 52.0 °F - 41.0 °F 66% 29.42 in 10.0 mi SSW 5.8 mph - N/A   Overcast
4:55 AM 51.1 °F - 39.9 °F 66% 29.42 in 10.0 mi SSW 9.2 mph - N/A   Overcast
5:55 AM 50.0 °F - 41.0 °F 71% 29.42 in 10.0 mi SW 8.1 mph - N/A   Overcast
6:55 AM 50.0 °F - 42.1 °F 74% 29.43 in 10.0 mi SW 6.9 mph - N/A   Overcast
7:29 AM 48.9 °F - 43.0 °F 80% 29.43 in 10.0 mi SSW 10.4 mph - N/A   Overcast
7:55 AM 48.9 °F - 44.1 °F 83% 29.45 in 10.0 mi SSW 12.7 mph - N/A   Overcast
8:55 AM 48.9 °F - 44.1 °F 83% 29.47 in 9.0 mi SSW 10.4 mph - N/A   Overcast
9:30 AM 48.9 °F - 44.1 °F 83% 29.46 in 10.0 mi South 8.1 mph - N/A   Overcast
9:55 AM 48.9 °F - 45.0 °F 86% 29.48 in 10.0 mi SSW 9.2 mph - N/A   Overcast
10:12 AM 50.0 °F - 44.1 °F 80% 29.47 in 10.0 mi SSW 10.4 mph - N/A   Overcast
10:40 AM 48.9 °F - 45.0 °F 86% 29.48 in 9.0 mi SSW 11.5 mph - N/A   Overcast
10:50 AM 48.2 °F - 44.6 °F 87% 29.48 in 10.0 mi SSW 9.2 mph - N/A   Overcast
10:55 AM 48.9 °F - 44.1 °F 83% 29.49 in 10.0 mi SSW 11.5 mph - N/A   Overcast
11:12 AM 48.9 °F - 45.0 °F 86% 29.49 in 8.0 mi SSW 10.4 mph - N/A   Overcast
11:27 AM 48.9 °F - 45.0 °F 86% 29.49 in 9.0 mi SSW 11.5 mph - N/A   Overcast
11:37 AM 50.0 °F - 45.0 °F 83% 29.49 in 10.0 mi SSW 11.5 mph - N/A   Overcast
11:55 AM 48.9 °F - 45.0 °F 86% 29.51 in 5.0 mi SSW 9.2 mph - N/A   Overcast
12:18 PM 48.0 °F - 44.1 °F 86% 29.51 in 5.0 mi SSW 8.1 mph - N/A   Overcast
12:31 PM 48.9 °F - 44.1 °F 83% 29.51 in 10.0 mi SSW 11.5 mph - N/A   Overcast
12:46 PM 48.9 °F - 44.1 °F 83% 29.51 in 9.0 mi South 10.4 mph - N/A   Overcast
12:55 PM 48.9 °F - 44.1 °F 83% 29.52 in 10.0 mi South 12.7 mph - N/A   Overcast
1:18 PM 48.0 °F - 44.1 °F 86% 29.52 in 10.0 mi SSW 10.4 mph 18.4 mph 0.00 in   Overcast
1:27 PM 48.0 °F - 44.1 °F 86% 29.52 in 10.0 mi South 11.5 mph - 0.00 in   Overcast
1:55 PM 48.0 °F - 44.1 °F 86% 29.54 in 10.0 mi SSW 11.5 mph - 0.00 in   Overcast
2:19 PM 48.9 °F - 44.1 °F 83% 29.53 in 10.0 mi SSW 10.4 mph - N/A   Overcast
2:26 PM 48.9 °F - 45.0 °F 86% 29.54 in 10.0 mi SSW 11.5 mph - N/A   Overcast
2:55 PM 48.9 °F - 45.0 °F 86% 29.56 in 10.0 mi South 9.2 mph - 0.00 in Rain Light Rain
3:55 PM 50.0 °F - 44.6 °F 82% 29.56 in 10.0 mi SW 11.5 mph - N/A Rain Light Rain
4:55 PM 51.1 °F - 45.0 °F 80% 29.57 in 10.0 mi SSW 9.2 mph - 0.00 in   Overcast
5:19 PM 51.1 °F - 46.0 °F 83% 29.57 in 10.0 mi SW 9.2 mph - N/A   Overcast
5:41 PM 51.1 °F - 46.0 °F 83% 29.58 in 10.0 mi WSW 5.8 mph - 0.00 in Rain Light Rain
5:55 PM 52.0 °F - 46.0 °F 80% 29.60 in 10.0 mi West 8.1 mph - 0.00 in   Overcast
6:33 PM 52.0 °F - 46.0 °F 80% 29.60 in 10.0 mi SW 6.9 mph - N/A   Overcast
6:55 PM 52.0 °F - 45.0 °F 77% 29.62 in 10.0 mi WSW 6.9 mph - N/A   Overcast
7:55 PM 50.0 °F - 46.9 °F 89% 29.65 in 2.5 mi WNW 8.1 mph - 0.01 in Rain Light Rain
8:00 PM 50.0 °F - 46.9 °F 89% 29.64 in 3.0 mi WNW 9.2 mph - 0.00 in Rain Light Rain
8:55 PM 46.9 °F - 44.1 °F 90% 29.70 in 10.0 mi NNW 9.2 mph 18.4 mph 0.03 in   Overcast
9:51 PM 44.6 °F 38.1 °F 41.0 °F 87% 29.71 in 10.0 mi NNW 13.8 mph 20.7 mph N/A   Overcast
9:55 PM 45.0 °F 38.9 °F 41.0 °F 86% 29.73 in 10.0 mi NNW 12.7 mph - N/A   Overcast
10:33 PM 43.0 °F 37.2 °F 37.9 °F 82% 29.73 in 10.0 mi NW 10.4 mph 20.7 mph N/A   Overcast
10:44 PM 43.0 °F 36.0 °F 39.0 °F 86% 29.74 in 10.0 mi WNW 13.8 mph - N/A   Overcast
10:55 PM 43.0 °F 35.7 °F 37.9 °F 82% 29.76 in 10.0 mi WNW 15.0 mph 21.9 mph N/A   Overcast
11:21 PM 42.1 °F 36.1 °F 37.0 °F 82% 29.74 in 10.0 mi WNW 10.4 mph - N/A   Overcast
11:55 PM 41.0 °F 34.3 °F 35.6 °F 81% 29.75 in 10.0 mi WNW 11.5 mph - N/A   Overcast